Flag for Finland Weather past 2 weeks in Kotka, Finland

Now
55 °F

Sprinkles. Partly sunny.


Feels Like: 55 °F
Forecast: 54 / 61 °F
Wind: 3 mph from Southeast

Location: Utti

Current Time: Sep 5, 2015 at 2:25:31 PM

Latest Report: Sep 5, 2015 at 1:50 PM


Visibility: N/A

Pressure: 29.62 "Hg

Humidity: 94%

Dew point: 54 °F

Location of KotkaLocation

Historic Weather in Kotka — Graph

°F

Kotka temperature yesterday

Maximum temperature yesterday: 64 °F (at 1:50 PM)
Minimum temperature yesterday: 52 °F (at 1:50 AM)
Average temperature yesterday: 57 °F

Past Weeks' High & Low Weather Summary

 TemperatureHumidityPressure
High77 °F (Aug 21, 1:50 PM)100% (Aug 22, 3:20 AM)30.42 "Hg (Aug 22, 3:20 AM)
Low50 °F (Aug 31, 4:50 AM)32% (Aug 21, 1:50 PM)29.62 "Hg (Aug 28, 1:20 PM)
Average61 °F76%30.00 "Hg
* Reported Aug 21 12:20 PM — Sep 5 12:50 PM, Kotka, Weather by CustomWeather, © 2015

Note: Actual official high and low records may vary slightly from our data, if they occured in-between our weather recording intervals... More about our weather records

Advertising

Kotka weather history for previous 24 hours

 ConditionsComfort  
Time TempWeatherWind HumidityBarometerVisibility
12:50 PM
Sat, Sep 5
61 °FBroken clouds.8 mph83%29.62 "HgN/A
12:20 PM59 °FPartly sunny.9 mph82%29.62 "HgN/A
11:50 AM59 °FLight rain. Partly sunny.10 mph82%29.62 "HgN/A
11:20 AM61 °FScattered clouds.8 mph77%29.62 "HgN/A
10:50 AM61 °FPassing clouds.9 mph77%29.62 "HgN/A
10:20 AM61 °FBroken clouds.8 mph83%29.62 "HgN/A
9:50 AM59 °FPartly sunny.7 mph88%29.65 "HgN/A
9:20 AM57 °FPassing clouds.6 mph94%29.65 "HgN/A
8:50 AM55 °FPartly sunny.6 mph94%29.65 "HgN/A
8:20 AM54 °FBroken clouds.7 mph100%29.65 "HgN/A
7:50 AM54 °FBroken clouds.7 mph100%29.65 "HgN/A
7:20 AM52 °FPartly sunny.7 mph100%29.65 "HgN/A
6:50 AM52 °FPassing clouds.6 mph100%29.65 "HgN/A
6:20 AM52 °FPartly cloudy.6 mph100%29.65 "HgN/A
5:50 AM52 °FPartly cloudy.7 mph100%29.65 "HgN/A
5:20 AM52 °FPassing clouds.7 mph100%29.68 "HgN/A
4:50 AM52 °FPassing clouds.7 mph100%29.68 "HgN/A
4:20 AM54 °FClear.7 mph94%29.68 "Hg10 mi
3:50 AM54 °FSprinkles. Mostly cloudy.5 mph100%29.71 "HgN/A
3:20 AM54 °FLow clouds.3 mph94%29.71 "HgN/A
2:50 AM54 °FMostly cloudy.2 mph100%29.71 "HgN/A
2:20 AM52 °FMostly cloudy.1 mph100%29.71 "HgN/A
1:50 AM52 °FClear.6 mph94%29.71 "Hg10 mi
1:20 AM52 °FPassing clouds.3 mph94%29.74 "HgN/A
12:20 AM52 °FClear.3 mph94%29.74 "Hg10 mi
11:50 PM
Fri, Sep 4
52 °FClear.3 mph100%29.74 "Hg10 mi
11:20 PM54 °FClear.5 mph94%29.74 "Hg10 mi
10:50 PM54 °FClear.5 mph94%29.77 "Hg10 mi
10:20 PM54 °FClear.6 mph94%29.77 "Hg10 mi
9:50 PM55 °FClear.6 mph88%29.77 "Hg10 mi
9:20 PM55 °FClear.6 mph88%29.77 "Hg10 mi
8:50 PM57 °FSunny.6 mph88%29.77 "Hg10 mi
8:20 PM59 °FSunny.7 mph82%29.77 "Hg10 mi
7:50 PM59 °FSunny.6 mph82%29.77 "Hg10 mi
7:20 PM61 °FOvercast.6 mph77%29.77 "HgN/A
6:50 PM61 °FBroken clouds.8 mph77%29.80 "HgN/A
6:20 PM63 °FBroken clouds.9 mph73%29.80 "HgN/A
5:50 PM61 °FPassing clouds.8 mph72%29.80 "HgN/A
5:20 PM63 °FPassing clouds.9 mph64%29.80 "HgN/A
4:50 PM64 °FPartly sunny.10 mph64%29.80 "HgN/A
4:20 PM64 °FScattered clouds.10 mph68%29.83 "HgN/A
3:50 PM64 °FPassing clouds.10 mph64%29.83 "HgN/A
3:20 PM64 °FScattered clouds.9 mph60%29.83 "HgN/A
2:50 PM64 °FScattered clouds.10 mph56%29.83 "HgN/A
2:20 PM64 °FScattered clouds.8 mph56%29.83 "HgN/A
Weather by CustomWeather, © 2015

See weather overviewHow to use our weather pages